Startseite
Über Mich
AHP4
Galerie
Sehschlangen
Tourenbuch
Bookmarks
Elektronik
Bewertung
Geschichten
[Tagesmessung] [Jahreswerte] [Information]

Messwerte vom 31.01.2022

Die letzten Messwerte von 23:58:47 Uhr:
KategorieMesswert
Temperatur [°C]1
Luftdruck [mBar]998
Sonneneinstrahlung0
Wind [km/h]3 aus West
Niederschlag [l/m²]0
rel.Luftfeucht.96.6%
CO2 [ppm]518

Diagramme
Messwerte vom 31.01.2022
Tagesaggregation
KategorieMinimumMaximumSchnittSumme
Temperatur [°C]031.5979
Luftdruck [mBar]9851002991.4938
Sonneneinstrahlung20157.3813
Wind [km/h]16
rF [%]81.596.692.81
Niederschlag [l/m²]6.4375
CO2 [ppm]430864731.9
Einordnung alsKalter Tag

Messungen an benachbarten Tagen: Zur Jahresaggregation 2022
Tabelle aller Messwerte
UhrzeitTemperatur [°C]Luftdruck [mBar]SonneWind [km/h]RichtungRegen [l/m²]rF [%]CO2 [ppm]
00:01:47 3 1002 0 1 SW 0 81.5 712
00:04:47 3 1002 0 2 S 0 81.5 720
00:07:49 3 1002 0 3 SW 0 81.5 720
00:10:46 3 1002 0 1 W 0 81.5 712
00:13:46 3 1002 0 1 O 0 81.6 718
00:16:46 3 1002 0 1 S 0 81.8 723
00:19:49 3 1002 0 0 SW 0 81.9 721
00:22:49 3 1002 0 2 SO 0 82 720
00:25:47 3 1002 0 0 SW 0 82 721
00:28:45 3 1001 0 2 O 0 81.9 721
00:31:48 3 1002 0 0 S 0 81.9 720
00:34:49 3 1001 0 1 SO 0 82 721
00:37:48 3 1001 0 2 SO 0 82.1 729
00:40:46 3 1001 0 0 S 0 82.4 726
00:43:49 3 1001 0 2 S 0 82.6 726
00:46:46 3 1001 0 2 S 0 82.9 731
00:49:45 2 1001 0 1 S 0 83 726
00:52:46 2 1001 0 1 S 0 83.2 726
00:55:46 2 1000 0 5 SW 0 83.5 725
00:58:47 2 1000 0 1 SO 0 83.6 727
01:01:47 2 1000 0 2 SW 0 83.7 726
01:04:48 2 1000 0 1 SO 0 83.8 732
01:07:46 2 1000 0 0 S 0 83.9 735
01:10:45 2 1000 0 3 S 0 84.1 741
01:13:44 2 999 0 1 S 0 84.3 739
01:16:45 2 999 0 3 S 0 84.4 735
01:19:46 2 999 0 2 S 0 84.6 738
01:22:51 2 999 0 1 SW 0 84.7 743
01:25:45 2 999 0 2 S 0 84.8 747
01:28:47 2 999 0 2 SW 0 84.6 739
01:31:45 2 999 0 1 SW 0 84.6 741
01:34:46 2 999 0 1 S 0 84.7 737
01:37:47 2 999 0 4 SW 0 84.8 744
01:40:47 2 999 0 1 W 0 84.7 747
01:43:46 2 998 0 1 S 0 84.7 746
01:46:44 2 998 0 1 S 0 84.6 740
01:49:46 2 998 0 0 SO 0 84.7 749
01:52:47 2 999 0 2 S 0 84.9 748
01:55:47 2 998 0 2 S 0 85 747
01:58:46 2 998 0 1 SO 0 85.2 751
02:01:48 2 998 0 0 NW 0 85.2 748
02:04:47 2 998 0 4 N 0 85.1 751
02:07:45 2 998 0 1 S 0 85.1 740
02:10:47 2 998 0 6 O 0 85 745
02:13:46 2 998 0 3 S 0 84.7 750
02:16:47 2 998 0 3 SW 0 84.5 750
02:19:48 2 998 0 4 SO 0 84.3 753
02:22:46 2 998 0 2 S 0 84.4 750
02:25:48 2 997 0 2 SW 0 84.5 750
02:28:46 2 998 0 6 S 0 84.4 752
02:31:47 2 997 0 3 S 0 84.1 762
02:34:47 2 997 0 2 SW 0 84.1 764
02:37:47 2 997 0 3 SW 0 84.1 762
02:40:50 2 997 0 2 SW 0 83.8 761
02:43:49 2 997 0 3 SO 0 83.7 763
02:46:47 2 997 0 3 SW 0 83.6 755
02:49:47 2 996 0 5 SO 0 83.7 753
02:52:46 2 996 0 12 S 0 83.5 747
02:55:46 2 997 0 2 W 0 83.2 741
02:58:45 2 996 0 6 S 0 83.1 749
03:01:48 2 995 0 2 SO 0 82.8 755
03:04:47 2 996 0 9 SO 0 82.9 764
03:07:46 2 995 0 5 SW 0 82.9 763
03:10:46 2 995 0 12 N 0 82.9 766
03:13:48 2 995 0 9 SO 0 82.9 764
03:16:46 2 995 0 4 SW 0 82.9 771
03:19:49 2 995 0 5 SW 0 82.9 770
03:22:48 2 995 0 1 SO 0 82.9 773
03:25:47 2 995 0 1 SO 0 82.9 770
03:28:47 2 995 0 8 SO 0 82.9 762
03:31:48 2 995 0 3 SW 0 83.3 762
03:34:45 2 995 0 6 S 0 83.4 765
03:37:46 2 995 0 5 SO 0 83.5 771
03:40:47 2 995 0 5 SO 0 83.6 777
03:43:47 2 995 0 7 S 0 83.9 770
03:46:47 2 995 0 2 SO 0 83.8 770
03:49:47 2 995 0 4 SO 0 83.6 768
03:52:45 2 995 0 1 SO 0 83.6 759
03:55:48 2 994 0 0 SO 0 83.6 764
03:58:46 2 995 0 3 SO 0 83.4 761
04:01:44 2 995 0 4 S 0 83.4 770
04:04:48 2 995 0 1 SO 0 83.6 762
04:07:47 2 994 0 2 S 0 83.7 779
04:10:46 2 994 0 2 SO 0 83.8 777
04:13:46 2 994 0 1 SW 0 83.9 781
04:16:47 2 994 0 0 S 0 83.9 783
04:19:47 2 993 0 6 S 0 83.6 779
04:22:45 2 994 0 4 S 0 83.3 775
04:25:47 2 993 0 3 SO 0 83.1 782
04:28:46 2 994 0 4 SW 0 82.7 781
04:31:45 2 993 0 1 SO 0 83 777
04:34:46 2 993 0 4 SW 0 82.7 777
04:37:46 2 993 0 1 NO 0 82.7 772
04:40:47 2 993 0 7 SO 0 82.9 785
04:43:45 2 992 0 2 S 0 82.6 782
04:46:48 2 992 0 2 SO 0 82.7 787
04:49:47 3 991 0 1 SW 0 82.8 790
04:52:47 2 992 0 15 SO 0 82.8 786
04:55:46 2 991 0 1 SO 0 82.8 785
04:58:47 2 991 0 2 SO 0 82.7 779
05:01:46 2 991 0 3 O 0 82.9 782
05:04:48 2 991 0 1 SO 0 83 782
05:07:48 2 991 0 3 SO 0 83.3 791
05:10:48 2 991 0 3 SO 0 83.5 785
05:13:45 2 991 0 1 S 0 83.6 785
05:16:46 2 991 0 5 S 0 83.8 782
05:19:45 2 991 0 7 SO 0 84 784
05:22:47 2 991 0 5 SW 0 84.1 788
05:25:44 2 991 0 3 S 0 84.1 779
05:28:46 2 991 0 0 NO 0 84.1 782
05:31:49 2 991 0 1 SO 0 84.2 782
05:34:46 2 991 0 3 SO 0 84.3 785
05:37:48 2 991 0 2 SO 0 84.3 782
05:40:47 2 991 0 5 S 0 84.6 789
05:43:46 2 991 0 0 SO 0 84.8 789
05:46:47 2 990 0 3 0 84.9 794
05:49:49 2 990 0 0 SO 0 84.9 788
05:52:48 2 990 0 0 SO 0 85.2 791
05:55:48 2 990 0 2 W 0 85.4 786
05:58:46 2 991 0 2 SO 0 85.4 792
06:01:50 2 989 0 10 SW 0 85.5 792
06:04:47 2 989 0 2 S 0 85.6 791
06:07:47 2 989 0 4 S 0 85.6 792
06:10:49 2 990 0 8 SO 0 85.6 794
06:13:48 2 989 0 4 SO 0 85.6 789
06:16:51 2 989 0 3 SO 0 85.6 780
06:19:47 2 989 0 3 S 0 85.5 781
06:22:48 2 989 0 2 SO 0 85.4 781
06:25:48 2 989 0 1 SO 0 85.5 785
06:28:47 2 989 0 2 S 0 85.6 785
06:31:47 2 988 0 2 SO 0 85.5 792
06:34:45 2 989 0 4 S 0 85.5 790
06:37:47 2 989 0 2 S 0 86 790
06:40:46 2 988 0 4 S 0 86.4 788
06:43:48 2 988 0 4 SW 0 86.7 785
06:46:48 2 988 0 6 NW 0 87.3 788
06:49:49 2 988 0 4 SO 0 88.7 785
06:52:48 2 988 0 1 O 0 89.2 782
06:55:48 2 988 0 4 SO 0 89.8 784
06:58:47 2 988 0 3 SO 0 90.2 787
07:01:47 2 988 0 5 S 0 90.4 787
07:04:46 2 987 0 0 SO 0 90.8 794
07:07:45 2 987 0 2 SO 0 91.1 788
07:10:46 2 988 0 0 SO 0 91.7 769
07:13:46 2 987 0 9 SW 0 92.3 779
07:16:47 2 988 0 1 SO 0 92.9 776
07:19:46 1 987 0 2 S 0 93.3 780
07:22:44 1 988 0 0 S 0 93.5 781
07:25:50 1 988 0 2 SO 0 93.8 791
07:28:46 1 988 0 1 SW 0 94.1 804
07:31:46 1 987 0 0 S 0 94.2 805
07:34:46 1 987 0 0 SW 0 94.7 815
07:37:47 1 987 0 2 SO 0 94.7 811
07:40:45 1 987 0 1 NO 0 94.8 826
07:43:47 1 988 4 0 O 0 94.9 825
07:46:51 1 987 7 2 SW 0 95 828
07:49:47 1 988 10 0 SO 0 95 832
07:52:48 1 987 14 1 SO 0 95.4 829
07:55:44 1 987 19 1 O 0 95.6 834
07:58:47 1 987 23 0 SO 0 95.9 841
08:01:49 1 987 30 0 NO 0 96 832
08:04:46 0 987 36 0 NO 0 96.2 841
08:07:45 0 987 42 3 O 0 96.4 846
08:10:45 0 987 47 2 O 0 96.6 843
08:13:47 0 987 53 0 O 0 96.6 838
08:16:47 0 987 60 2 SO 0 96.6 845
08:19:47 0 987 64 0 O 0 96.6 844
08:22:47 0 987 70 1 N 0 96.6 844
08:25:46 0 987 73 3 SO 0 96.6 837
08:28:49 1 987 79 1 SW 0 96.6 839
08:31:49 1 987 89 0 SW 0 96.6 838
08:34:48 1 987 100 2 SO 0 96.6 837
08:37:50 1 987 105 2 SW 0 96.6 828
08:40:49 1 987 102 1 NO 0 96.6 819
08:43:46 1 987 99 1 SO 0 96.6 802
08:46:48 1 987 104 0 SO 0 96.6 795
08:49:48 1 987 102 2 SW 0 96.6 792
08:52:48 1 987 106 2 SW 0.2575 96.6 787
08:55:49 1 986 102 2 SO 0 96.6 797
08:58:48 1 986 102 2 S 0 96.6 810
09:01:49 1 987 112 2 SO 0 96.6 815
09:04:47 1 987 119 3 S 0 96.6 819
09:07:48 1 987 124 8 SO 0 96.6 821
09:10:46 1 987 132 1 O 0 96.6 826
09:13:48 1 986 134 2 SO 0 96.6 829
09:16:49 1 986 141 1 SO 0 96.6 826
09:19:49 1 987 146 2 SO 0 96.6 831
09:22:47 1 986 147 3 SO 0 96.6 823
09:25:49 1 987 147 1 SO 0 96.6 815
09:28:50 1 987 148 1 SO 0 96.6 807
09:31:49 1 986 147 2 S 0 96.6 808
09:34:47 1 987 148 2 SO 0 96.6 801
09:37:48 1 986 151 4 SW 0 96.6 803
09:40:48 1 985 153 2 SO 0 96.6 805
09:43:46 1 986 158 4 S 0 96.6 800
09:46:48 1 986 161 1 SO 0 96.6 803
09:49:47 1 986 162 1 S 0 96.6 802
09:52:50 1 986 162 3 SO 0 96.6 809
09:55:47 1 986 161 2 SO 0 96.6 816
09:58:49 1 986 162 1 SW 0 96.6 821
10:01:46 1 986 164 3 S 0 96.6 821
10:04:47 1 986 166 0 S 0 96.6 823
10:07:50 1 986 170 1 SO 0 96.6 820
10:10:50 1 986 173 2 SO 0 96.6 819
10:13:46 1 986 174 1 SO 0 96.6 817
10:16:48 1 986 172 1 SO 0 96.6 807
10:19:48 1 985 173 1 SO 0 96.6 802
10:22:45 1 985 176 2 S 0 96.6 799
10:25:48 1 986 183 0 S 0 96.6 808
10:28:48 1 985 187 1 S 0 96.6 814
10:31:46 1 986 183 1 S 0 96.6 807
10:34:48 1 985 181 0 O 0 96.6 803
10:37:48 1 985 182 1 S 0 96.6 805
10:40:49 1 986 184 1 SO 0 96.6 803
10:43:47 1 985 181 1 SO 0 96.6 803
10:46:47 1 985 184 1 S 0 96.6 794
10:49:52 1 985 185 0 SO 0 96.6 792
10:52:47 1 985 184 0 S 0 96.6 802
10:55:48 1 986 179 0 SO 0 96.6 800
10:58:50 1 986 178 0 SO 0 96.6 796
11:01:48 1 987 177 0 SO 0 96.6 796
11:04:51 1 986 180 0 SO 0 96.6 794
11:07:46 1 986 177 0 S 0 96.6 787
11:10:46 1 986 179 0 S 0 96.6 781
11:13:45 1 985 180 0 S 0 96.6 770
11:16:47 1 987 184 0 S 0 96.6 769
11:19:49 1 985 190 0 SO 0 96.6 769
11:22:49 1 986 192 1 SO 0 96.6 777
11:25:48 1 986 195 1 SO 0 96.6 785
11:28:45 1 986 198 0 S 0 96.6 785
11:31:48 1 986 199 0 S 0 96.6 785
11:34:46 1 986 201 0 S 0 96.6 787
11:37:48 1 986 198 0 S 0 96.6 782
11:40:47 1 986 196 0 S 0 96.6 785
11:43:47 1 986 193 0 S 0 96.6 779
11:46:48 1 986 190 0 SO 0 96.6 776
11:49:48 1 985 186 0 S 0 96.6 780
11:52:48 1 986 186 0 SO 0 96.6 773
11:55:47 1 986 189 0 O 0 96.6 753
11:58:46 1 986 192 0 O 0 96.6 729
12:01:47 1 987 190 0 S 0 96.6 720
12:04:47 1 986 188 0 S 0.2575 96.6 753
12:07:47 1 986 182 0 S 0 96.6 750
12:10:48 1 986 183 0 S 0 96.6 747
12:13:48 1 986 183 0 S 0.2575 96.6 756
12:16:46 1 987 186 1 S 0 96.6 759
12:19:46 1 987 189 0 S 0.2575 96.6 758
12:22:49 1 986 180 0 S 0 96.6 764
12:25:46 1 986 181 0 S 0 96.6 769
12:28:48 1 986 179 0 W 0.2575 96.6 779
12:31:47 1 986 180 0 W 0 96.6 786
12:34:48 1 986 183 0 W 0 96.6 796
12:37:48 1 986 189 0 W 0.2575 96.6 802
12:40:46 1 985 192 0 W 0 96.6 790
12:43:48 1 987 189 0 W 0 96.6 780
12:46:48 1 987 190 0 W 0.2575 96.6 767
12:49:46 1 987 193 0 W 0 96.6 759
12:52:46 1 987 197 0 W 0.2575 96.6 775
12:55:48 1 987 189 0 W 0 96.6 782
12:58:46 1 987 187 0 W 0.2575 96.6 788
13:01:49 1 987 189 0 NW 0 96.6 793
13:04:49 1 987 192 0 NW 0 96.6 811
13:07:47 1 986 193 0 NW 0.2575 96.6 821
13:10:47 1 987 196 0 NW 0 96.6 815
13:13:48 1 986 193 0 N 0.2575 96.6 814
13:16:46 1 987 197 1 NW 0 96.6 819
13:19:46 1 987 200 1 N 0.2575 96.6 814
13:22:48 1 987 201 0 N 0 96.6 816
13:25:47 1 987 197 3 W 0 96.6 818
13:28:48 1 987 185 0 NW 0.2575 96.6 812
13:31:51 1 987 180 1 NW 0 96.6 806
13:34:46 1 987 173 3 N 0 96.6 806
13:37:47 1 987 170 2 NW 0.2575 96.6 808
13:40:46 1 987 173 2 N 0 96.6 807
13:43:50 1 987 174 0 NO 0 96.6 803
13:46:47 1 987 174 0 0.2575 96.6 802
13:49:46 1 987 173 0 NO 0 96.6 799
13:52:48 1 987 170 0 W 0 96.6 805
13:55:49 1 987 166 1 NW 0.2575 96.6 814
13:58:47 1 987 162 1 N 0 96.6 816
14:01:49 1 987 162 1 NO 0 96.6 823
14:04:47 1 987 163 0 O 0 96.6 821
14:07:48 1 987 166 1 NW 0 96.6 828
14:10:47 1 987 165 1 O 0.2575 96.6 828
14:13:47 1 987 162 3 NW 0 96.6 833
14:16:45 1 987 162 0 N 0 96.6 832
14:19:48 1 987 166 1 NW 0 96.6 830
14:22:49 1 987 165 1 NW 0 96.6 831
14:25:47 1 987 165 3 N 0.2575 96.6 832
14:28:48 1 987 164 1 NO 0 96.6 839
14:31:47 1 987 163 5 NW 0 96.6 836
14:34:46 1 987 158 1 N 0 96.6 826
14:37:49 1 987 159 1 NW 0 96.6 821
14:40:47 1 987 164 2 NW 0 96.6 823
14:43:46 1 987 163 4 0.2575 96.6 821
14:46:51 1 988 167 0 NO 0 96.6 820
14:49:47 2 988 165 0 N 0 96.6 819
14:52:47 2 988 170 0 NW 0 96.6 821
14:55:45 2 988 173 0 0 96.6 829
14:58:46 2 987 171 0 0.2575 96.6 838
15:01:48 2 988 168 1 NW 0 96.6 854
15:04:47 2 987 169 0 NW 0 96.6 849
15:07:50 2 988 164 1 NW 0 96.6 852
15:10:44 2 987 154 0 0 96.6 850
15:13:46 2 988 152 1 NO 0 96.6 840
15:16:48 2 988 137 1 N 0 96.6 835
15:19:46 2 988 128 1 N 0 96.6 836
15:22:45 2 987 123 6 0.2575 96.6 831
15:25:48 2 988 138 4 NW 0 96.6 837
15:28:46 2 987 143 2 N 0 96.6 835
15:31:48 2 988 138 0 NO 0 96.6 835
15:34:50 2 988 129 0 N 0 96.6 824
15:37:48 2 988 134 4 NW 0 96.6 821
15:40:48 2 988 135 1 NO 0 96.6 826
15:43:47 2 988 134 0 N 0.2575 96.6 828
15:46:48 2 988 130 1 NW 0 96.6 829
15:49:48 2 988 127 1 NW 0 96.6 835
15:52:48 2 988 122 1 NW 0 96.6 843
15:55:47 2 989 128 1 N 0 96.6 842
15:58:50 2 988 123 0 NW 0 96.6 838
16:01:47 2 988 125 0 NW 0 96.6 851
16:04:49 2 988 127 0 NO 0 96.6 861
16:07:49 2 989 131 0 NO 0 96.6 864
16:10:47 2 989 130 1 N 0 96.6 857
16:13:48 2 989 126 1 NW 0 96.6 852
16:16:50 2 989 124 0 NW 0 96.6 847
16:19:49 2 988 123 0 NW 0 96.6 839
16:22:45 2 989 120 0 N 0 96.6 840
16:25:47 2 989 114 4 NO 0 96.6 833
16:28:47 2 989 107 0 N 0 96.6 826
16:31:47 2 989 99 0 NO 0.2575 96.6 831
16:34:46 2 990 94 0 N 0 96.6 822
16:37:48 2 990 86 0 NO 0 96.6 817
16:40:47 2 989 98 0 NO 0 96.6 814
16:43:45 2 990 87 0 N 0 96.6 814
16:46:46 2 990 85 0 N 0 96.6 810
16:49:49 2 990 78 0 NW 0 96.6 800
16:52:48 2 990 70 2 NW 0 96.6 790
16:55:46 2 990 61 0 N 0 96.6 791
16:58:44 2 990 57 4 N 0 96.6 785
17:01:47 2 990 47 2 N 0 96.6 780
17:04:45 2 990 33 0 NO 0 96.6 767
17:07:47 2 991 22 0 NO 0 96.6 759
17:10:46 2 991 16 2 O 0 96.6 764
17:13:46 2 990 12 3 W 0 96.6 758
17:16:45 2 991 8 0 N 0 96.6 749
17:19:44 2 990 5 7 N 0 96.6 744
17:22:45 2 991 3 1 N 0 96.6 744
17:25:45 2 991 0 0 S 0 96.6 739
17:28:43 2 991 0 2 N 0 96.6 741
17:31:46 2 991 0 1 NO 0 96.6 742
17:34:44 2 991 0 3 N 0 96.6 733
17:37:46 2 991 0 2 NW 0 96.6 723
17:40:45 2 991 0 4 O 0 96.6 718
17:43:48 2 991 0 1 NW 0 96.6 713
17:46:45 2 991 0 1 NO 0 96.6 708
17:49:46 2 991 0 3 N 0 96.6 705
17:52:47 2 991 0 0 NO 0 96.6 700
17:55:46 2 991 0 5 W 0.2575 96.6 691
17:58:46 2 991 0 3 N 0 96.6 695
18:01:47 2 991 0 2 NW 0 96.6 689
18:04:47 2 991 0 4 NW 0 96.6 679
18:07:44 2 991 0 1 N 0 96.6 667
18:10:46 2 991 0 0 N 0 96.6 670
18:13:46 2 991 0 2 NW 0 96.6 676
18:16:44 2 991 0 2 N 0 96.6 673
18:19:44 2 991 0 3 0 96.6 673
18:22:44 2 991 0 0 O 0 96.6 672
18:25:45 2 991 0 1 N 0 96.6 667
18:28:45 2 991 0 2 NO 0 96.6 664
18:31:45 2 991 0 0 O 0 96.6 659
18:34:46 2 991 0 0 N 0 96.6 652
18:37:47 2 991 0 1 NO 0 96.6 659
18:40:45 2 992 0 2 N 0 96.6 563
18:43:47 2 992 0 0 N 0 96.6 430
18:46:47 2 991 0 5 NW 0 96.6 515
18:49:45 2 992 0 3 N 0 96.6 548
18:52:46 2 992 0 0 W 0 96.6 550
18:55:46 2 992 0 2 NO 0 96.6 573
18:58:47 2 993 0 1 W 0 96.6 563
19:01:45 2 993 0 1 N 0 96.6 553
19:04:45 2 993 0 0 W 0 96.6 553
19:07:45 2 992 0 2 NO 0 96.6 548
19:10:48 2 993 0 2 NW 0 96.6 550
19:13:45 2 993 0 3 N 0 96.6 553
19:16:47 2 993 0 1 NW 0 96.6 560
19:19:46 2 993 0 3 SW 0 96.6 557
19:22:47 2 994 0 7 NW 0 96.6 566
19:25:46 2 993 0 2 NW 0 96.6 567
19:28:46 2 994 0 6 NW 0 96.6 572
19:31:46 2 994 0 4 N 0 96.6 574
19:34:44 2 994 0 4 W 0 96.6 578
19:37:46 2 995 0 8 NW 0 96.6 574
19:40:44 2 994 0 4 W 0 96.6 577
19:43:43 2 994 0 0 N 0 96.6 579
19:46:47 2 995 0 0 N 0 96.6 583
19:49:46 2 995 0 3 NW 0 96.6 586
19:52:43 2 995 0 1 O 0 96.6 594
19:55:45 2 994 0 1 NW 0 96.6 597
19:58:46 2 995 0 0 NO 0 96.6 594
20:01:45 2 994 0 2 W 0 96.6 597
20:04:48 2 994 0 1 NW 0 96.6 602
20:07:46 2 994 0 3 NO 0 96.6 601
20:10:47 2 995 0 3 NW 0 96.6 602
20:13:46 2 995 0 4 W 0 96.6 609
20:16:46 2 995 0 3 W 0 96.6 612
20:19:50 2 995 0 1 NW 0 96.6 605
20:22:46 2 995 0 3 W 0 96.6 615
20:25:48 2 995 0 5 NW 0 96.6 615
20:28:48 2 995 0 3 NW 0 96.6 618
20:31:46 2 995 0 4 W 0 96.6 608
20:34:45 2 995 0 4 W 0 96.6 612
20:37:46 2 995 0 6 N 0 96.6 617
20:40:47 2 995 0 4 NW 0 96.6 623
20:43:47 2 995 0 2 N 0 96.6 627
20:46:44 2 995 0 3 O 0 96.6 641
20:49:47 2 995 0 2 NW 0 96.6 644
20:52:45 2 995 0 4 N 0 96.6 645
20:55:46 2 995 0 5 NW 0 96.6 640
20:58:46 2 996 0 5 O 0 96.6 644
21:01:47 2 995 0 4 NW 0 96.6 656
21:04:45 2 995 0 5 N 0 96.6 659
21:07:45 2 995 0 1 N 0 96.6 656
21:10:46 2 995 0 7 O 0 96.6 656
21:13:46 2 996 0 16 NW 0 96.6 658
21:16:49 2 995 0 7 NW 0 96.6 659
21:19:45 2 995 0 2 NO 0 96.6 664
21:22:45 2 995 0 1 N 0 96.6 664
21:25:46 1 996 0 8 W 0 96.6 488
21:28:48 1 995 0 5 N 0 96.6 492
21:31:46 1 995 0 6 W 0 96.6 495
21:34:48 1 996 0 5 W 0 96.6 489
21:37:46 1 996 0 6 W 0 96.6 486
21:40:47 1 996 0 6 NW 0 96.6 488
21:43:47 1 996 0 6 W 0 96.6 495
21:46:46 1 996 0 5 W 0 96.6 500
21:49:47 1 996 0 3 N 0 96.6 498
21:52:47 1 996 0 2 N 0 96.6 501
21:55:44 1 996 0 2 N 0 96.6 498
21:58:46 1 996 0 2 NW 0 96.6 495
22:01:50 1 996 0 1 NW 0 96.6 486
22:04:48 1 996 0 1 NW 0 96.6 486
22:07:46 1 996 0 4 W 0 96.6 497
22:10:48 1 997 0 3 W 0 96.6 507
22:13:46 1 996 0 6 W 0 96.6 513
22:16:48 1 997 0 4 NW 0 96.6 504
22:19:46 1 996 0 5 W 0 96.6 504
22:22:45 1 997 0 5 W 0 96.6 500
22:25:47 1 996 0 7 W 0 96.6 498
22:28:45 1 997 0 1 W 0.2575 96.6 497
22:31:47 1 996 0 2 W 0 96.6 492
22:34:47 1 997 0 3 W 0 96.6 500
22:37:46 1 998 0 4 W 0 96.6 509
22:40:47 1 998 0 5 W 0 96.6 516
22:43:46 1 997 0 2 W 0 96.6 512
22:46:48 1 997 0 1 SW 0 96.6 512
22:49:47 1 998 0 2 SW 0 96.6 516
22:52:47 1 997 0 0 NW 0 96.6 521
22:55:44 1 997 0 1 SW 0 96.6 527
22:58:47 1 997 0 2 SW 0 96.6 527
23:01:47 1 998 0 2 SW 0 96.6 521
23:04:49 1 998 0 2 W 0 96.6 519
23:07:46 1 998 0 2 W 0 96.6 521
23:10:47 1 997 0 1 SW 0 96.6 521
23:13:46 1 998 0 5 W 0 96.6 530
23:16:47 1 997 0 4 SW 0 96.6 521
23:19:47 1 997 0 3 NW 0 96.6 525
23:22:47 1 998 0 2 S 0 96.6 527
23:25:46 1 998 0 7 S 0 96.6 527
23:28:47 1 998 0 3 W 0 96.6 524
23:31:46 1 998 0 0 O 0 96.6 524
23:34:50 1 998 0 3 NW 0 96.6 521
23:37:49 1 997 0 2 NW 0 96.6 521
23:40:46 1 998 0 4 W 0 96.6 518
23:43:46 1 998 0 4 W 0 96.6 518
23:46:45 1 998 0 6 W 0 96.6 519
23:49:49 1 997 0 6 NW 0 96.6 518
23:52:49 1 998 0 2 W 0 96.6 519
23:55:45 1 998 0 1 W 0 96.6 516
23:58:47 1 998 0 3 W 0 96.6 518

Letzte Änderung : 22-Jul-2022
Copyright Jens Köhler, Wolfsburg, Obere Dorfstraße 10d